DAL3073 KCHS-KLGA

Flight info

Callsign DAL3073
Flight time 1h 30m
Altitude 35000
Route SWPFX3 FILLI LCAPE Q87 HURTS PROUD2
Aircraft A20N/M-SDE2E3FGHIRWXY/LB1

Departure

Time 2026-04-22 17:31
Airport Charleston International Airport (KCHS)

Arrival

Time 2026-04-22 19:01
Airport LaGuardia Airport (KLGA)
Time Latitude Longitude Altitude Speed Heading
2026-04-22 17:13 32.88539 -80.03637 37 ft 0 kts 145°
2026-04-22 17:17 32.88549 -80.03646 37 ft 2 kts 130°
2026-04-22 17:17 32.88558 -80.03661 36 ft 2 kts 112°
2026-04-22 17:17 32.88562 -80.03677 36 ft 2 kts 95°
2026-04-22 17:17 32.88563 -80.03687 36 ft 0 kts 85°
2026-04-22 17:18 32.88564 -80.03683 36 ft 2 kts 80°
2026-04-22 17:19 32.88574 -80.03676 37 ft 0 kts 20°
2026-04-22 17:28 32.88577 -80.03675 37 ft 1 kts 18°
2026-04-22 17:28 32.88596 -80.03670 38 ft 4 kts 11°
2026-04-22 17:28 32.88640 -80.03661 38 ft 10 kts
2026-04-22 17:28 32.88730 -80.03647 38 ft 17 kts
2026-04-22 17:29 32.88866 -80.03625 40 ft 22 kts
2026-04-22 17:29 32.88995 -80.03601 45 ft 15 kts 18°
2026-04-22 17:29 32.89075 -80.03500 45 ft 19 kts 51°
2026-04-22 17:29 32.89151 -80.03384 46 ft 20 kts 61°
2026-04-22 17:30 32.89234 -80.03262 42 ft 18 kts 18°
2026-04-22 17:30 32.89328 -80.03318 44 ft 22 kts 329°
2026-04-22 17:30 32.89728 -80.03619 49 ft 112 kts 327°
2026-04-22 17:30 32.90571 -80.04247 305 ft 159 kts 327°
2026-04-22 17:31 32.91570 -80.04972 995 ft 180 kts 324°
2026-04-22 17:31 32.92717 -80.05812 1616 ft 208 kts 326°
2026-04-22 17:31 32.94018 -80.06792 2269 ft 233 kts 324°
2026-04-22 17:31 32.95432 -80.07920 3063 ft 254 kts 322°
2026-04-22 17:32 32.96930 -80.09155 3883 ft 269 kts 324°
2026-04-22 17:32 32.98564 -80.10246 5022 ft 266 kts 345°
2026-04-22 17:32 33.00336 -80.10360 6359 ft 262 kts
2026-04-22 17:32 33.02057 -80.09542 7299 ft 273 kts 25°
2026-04-22 17:33 33.03230 -80.08893 7900 ft 279 kts 24°
2026-04-22 17:33 33.05592 -80.07576 9146 ft 288 kts 23°
2026-04-22 17:33 33.07425 -80.06560 10127 ft 294 kts 23°
2026-04-22 17:33 33.09349 -80.05502 10628 ft 316 kts 23°
2026-04-22 17:34 33.11423 -80.04372 11014 ft 339 kts 22°
2026-04-22 17:34 33.13613 -80.03180 11701 ft 349 kts 22°
2026-04-22 17:34 33.15806 -80.01986 12615 ft 353 kts 22°
2026-04-22 17:34 33.18060 -80.00759 13471 ft 359 kts 22°
2026-04-22 17:35 33.20351 -79.99512 14306 ft 365 kts 22°
2026-04-22 17:35 33.22674 -79.98248 15087 ft 369 kts 22°
2026-04-22 17:35 33.25020 -79.96969 15852 ft 373 kts 22°
2026-04-22 17:35 33.27398 -79.95672 16613 ft 378 kts 22°
2026-04-22 17:36 33.29802 -79.94360 17355 ft 383 kts 22°
2026-04-22 17:36 33.32239 -79.93031 18079 ft 387 kts 22°
2026-04-22 17:36 33.34670 -79.91703 18768 ft 392 kts 22°
2026-04-22 17:36 33.37157 -79.90359 19475 ft 392 kts 20°
2026-04-22 17:37 33.39738 -79.89311 20193 ft 392 kts 12°
2026-04-22 17:37 33.42396 -79.88578 20877 ft 393 kts 10°
2026-04-22 17:37 33.45074 -79.87844 21563 ft 396 kts 11°
2026-04-22 17:37 33.47765 -79.87097 22250 ft 398 kts 11°
2026-04-22 17:38 33.50473 -79.86344 22923 ft 401 kts 11°
2026-04-22 17:38 33.53196 -79.85587 23581 ft 403 kts 11°
2026-04-22 17:38 33.55933 -79.84827 24191 ft 405 kts 11°
2026-04-22 17:38 33.58659 -79.84069 24652 ft 410 kts 11°
2026-04-22 17:39 33.61449 -79.83293 25124 ft 414 kts 11°
2026-04-22 17:39 33.64265 -79.82510 25596 ft 417 kts 11°
2026-04-22 17:39 33.69969 -79.80922 26526 ft 424 kts 10°
2026-04-22 17:40 33.72860 -79.80115 26970 ft 428 kts 10°
2026-04-22 17:40 33.75774 -79.79301 27386 ft 432 kts
2026-04-22 17:40 33.78713 -79.78481 27793 ft 436 kts
2026-04-22 17:40 33.81641 -79.77663 28150 ft 440 kts
2026-04-22 17:41 33.84638 -79.76825 28554 ft 444 kts
2026-04-22 17:41 33.87627 -79.75816 28948 ft 449 kts 13°
2026-04-22 17:41 33.90625 -79.74717 29302 ft 452 kts 13°
2026-04-22 17:41 33.93647 -79.73617 29665 ft 455 kts 13°
2026-04-22 17:42 33.96691 -79.72511 30009 ft 459 kts 13°
2026-04-22 17:42 33.99755 -79.71396 30348 ft 462 kts 13°
2026-04-22 17:42 34.02840 -79.70273 30692 ft 464 kts 13°
2026-04-22 17:42 34.05893 -79.69159 31116 ft 464 kts 12°
2026-04-22 17:43 34.08980 -79.68031 31539 ft 464 kts 12°
2026-04-22 17:43 34.12066 -79.66903 31976 ft 463 kts 12°
2026-04-22 17:43 34.15143 -79.65777 32432 ft 461 kts 12°
2026-04-22 17:43 34.18211 -79.64654 32906 ft 460 kts 12°
2026-04-22 17:44 34.21270 -79.63534 33363 ft 458 kts 12°
2026-04-22 17:44 34.24312 -79.62419 33809 ft 457 kts 12°
2026-04-22 17:44 34.27346 -79.61307 34241 ft 455 kts 12°
2026-04-22 17:44 34.30365 -79.60199 34660 ft 452 kts 13°
2026-04-22 17:45 34.33357 -79.59100 35082 ft 446 kts 13°
2026-04-22 17:45 34.36278 -79.58026 35214 ft 444 kts 13°
2026-04-22 17:45 34.39245 -79.56937 35236 ft 448 kts 13°
2026-04-22 17:46 34.45304 -79.54712 35235 ft 461 kts 13°
2026-04-22 17:46 34.51501 -79.52427 35224 ft 467 kts 13°
2026-04-22 17:47 34.57529 -79.49458 35226 ft 469 kts 25°
2026-04-22 17:47 34.63204 -79.45628 35227 ft 470 kts 25°
2026-04-22 17:48 34.67963 -79.42438 35235 ft 470 kts 25°
2026-04-22 17:48 34.74686 -79.37909 35229 ft 473 kts 25°
2026-04-22 17:49 34.80423 -79.34025 35229 ft 469 kts 26°
2026-04-22 17:49 34.86078 -79.30191 35230 ft 469 kts 26°
2026-04-22 17:50 34.91782 -79.26317 35225 ft 469 kts 26°
2026-04-22 17:50 34.97478 -79.22443 35213 ft 469 kts 26°
2026-04-22 17:51 35.03170 -79.18565 35184 ft 467 kts 26°
2026-04-22 17:51 35.08825 -79.14706 35171 ft 466 kts 26°
2026-04-22 17:52 35.14445 -79.10866 35170 ft 466 kts 26°
2026-04-22 17:52 35.20100 -79.06995 35175 ft 466 kts 26°
2026-04-22 17:53 35.25773 -79.03105 35199 ft 469 kts 26°
2026-04-22 17:53 35.31411 -78.99232 35172 ft 464 kts 26°
2026-04-22 17:54 35.37013 -78.95379 35166 ft 465 kts 26°
2026-04-22 17:54 35.42652 -78.91494 35177 ft 465 kts 26°
2026-04-22 17:55 35.47338 -78.88261 35181 ft 465 kts 26°
2026-04-22 17:55 35.53926 -78.83707 35180 ft 465 kts 26°
2026-04-22 17:56 35.59520 -78.79833 35174 ft 465 kts 26°
2026-04-22 17:56 35.65143 -78.75904 35173 ft 465 kts 28°
2026-04-22 17:57 35.70748 -78.71923 35167 ft 465 kts 26°
2026-04-22 17:57 35.76353 -78.68059 35173 ft 461 kts 26°
2026-04-22 17:58 35.81921 -78.64174 35170 ft 463 kts 26°
2026-04-22 17:58 35.87530 -78.60278 35171 ft 463 kts 25°
2026-04-22 17:59 35.93159 -78.56427 35172 ft 463 kts 25°
2026-04-22 17:59 35.98759 -78.52530 35173 ft 461 kts 25°
2026-04-22 18:00 36.03392 -78.49278 35169 ft 461 kts 25°
2026-04-22 18:00 36.09874 -78.44717 35173 ft 461 kts 25°
2026-04-22 18:01 36.15452 -78.40787 35172 ft 461 kts 26°
2026-04-22 18:01 36.21019 -78.36858 35166 ft 459 kts 26°
2026-04-22 18:02 36.26567 -78.32938 35149 ft 459 kts 26°
2026-04-22 18:02 36.32078 -78.29036 35145 ft 459 kts 26°
2026-04-22 18:03 36.37526 -78.24869 35139 ft 463 kts 32°
2026-04-22 18:03 36.42385 -78.19560 35142 ft 465 kts 39°
2026-04-22 18:04 36.47082 -78.14050 35142 ft 465 kts 39°
2026-04-22 18:04 36.51758 -78.08565 35136 ft 465 kts 39°
2026-04-22 18:05 36.56460 -78.03027 35167 ft 466 kts 39°
2026-04-22 18:05 36.61155 -77.97483 35172 ft 466 kts 39°
2026-04-22 18:06 36.65844 -77.91926 35169 ft 466 kts 39°
2026-04-22 18:06 36.70534 -77.86360 35163 ft 465 kts 39°
2026-04-22 18:07 36.75195 -77.80837 35128 ft 465 kts 39°
2026-04-22 18:07 36.79884 -77.75270 35128 ft 465 kts 39°
2026-04-22 18:08 36.84572 -77.69694 35135 ft 465 kts 39°
2026-04-22 18:08 36.89253 -77.64113 35122 ft 465 kts 39°
2026-04-22 18:09 36.93934 -77.58528 35129 ft 466 kts 39°
2026-04-22 18:09 36.98591 -77.52959 35108 ft 467 kts 39°
2026-04-22 18:10 37.03280 -77.47337 35108 ft 467 kts 39°
2026-04-22 18:10 37.07963 -77.41715 35110 ft 466 kts 39°
2026-04-22 18:11 37.12644 -77.36087 35109 ft 467 kts 39°
2026-04-22 18:11 37.17293 -77.30492 35110 ft 467 kts 39°
2026-04-22 18:12 37.21972 -77.24850 35111 ft 466 kts 39°
2026-04-22 18:12 37.25862 -77.20151 35122 ft 469 kts 39°
2026-04-22 18:13 37.31340 -77.13518 35102 ft 467 kts 39°
2026-04-22 18:13 37.35986 -77.07885 35103 ft 467 kts 39°
2026-04-22 18:14 37.40661 -77.02205 35100 ft 467 kts 39°
2026-04-22 18:14 37.45438 -76.96695 35100 ft 463 kts 33°
2026-04-22 18:15 37.50823 -76.92418 35095 ft 454 kts 22°
2026-04-22 18:15 37.56389 -76.88731 35105 ft 455 kts 23°
2026-04-22 18:16 37.61988 -76.84991 35106 ft 457 kts 23°
2026-04-22 18:16 37.67618 -76.81233 35100 ft 457 kts 23°
2026-04-22 18:17 37.73239 -76.77479 35097 ft 457 kts 23°
2026-04-22 18:17 37.78825 -76.73743 35089 ft 457 kts 23°
2026-04-22 18:18 37.84448 -76.69975 35091 ft 457 kts 23°
2026-04-22 18:18 37.90081 -76.66239 35100 ft 456 kts 22°
2026-04-22 18:19 37.95753 -76.62676 35085 ft 455 kts 21°
2026-04-22 18:19 38.01389 -76.59130 35085 ft 455 kts 21°
2026-04-22 18:20 38.07056 -76.55535 35090 ft 455 kts 21°
2026-04-22 18:20 38.12723 -76.51927 35100 ft 456 kts 21°
2026-04-22 18:21 38.18398 -76.48307 35091 ft 457 kts 21°
2026-04-22 18:21 38.24046 -76.44699 35090 ft 457 kts 21°
2026-04-22 18:22 38.29651 -76.40830 35090 ft 462 kts 28°
2026-04-22 18:22 38.34826 -76.35899 35090 ft 465 kts 32°
2026-04-22 18:23 38.39964 -76.30896 35089 ft 465 kts 32°
2026-04-22 18:23 38.45102 -76.25880 35084 ft 465 kts 32°
2026-04-22 18:24 38.52764 -76.18368 35084 ft 465 kts 32°
2026-04-22 18:25 38.60462 -76.10798 35081 ft 466 kts 32°
2026-04-22 18:25 38.65586 -76.05819 35084 ft 465 kts 31°
2026-04-22 18:26 38.73446 -75.98544 35096 ft 465 kts 30°
2026-04-22 18:26 38.78668 -75.93672 35086 ft 465 kts 31°
2026-04-22 18:27 38.83885 -75.88780 35083 ft 465 kts 31°
2026-04-22 18:27 38.89066 -75.83913 35083 ft 465 kts 31°
2026-04-22 18:28 38.94280 -75.79005 35088 ft 465 kts 31°
2026-04-22 18:28 38.99500 -75.74076 35067 ft 466 kts 31°
2026-04-22 18:29 39.04719 -75.69135 35062 ft 466 kts 31°
2026-04-22 18:29 39.09899 -75.64223 35058 ft 466 kts 31°
2026-04-22 18:30 39.17714 -75.56796 35055 ft 465 kts 31°
2026-04-22 18:30 39.20305 -75.54328 34940 ft 461 kts 31°
2026-04-22 18:31 39.22871 -75.51880 34524 ft 457 kts 31°
2026-04-22 18:31 39.25443 -75.49482 33781 ft 455 kts 29°
2026-04-22 18:31 39.28061 -75.47167 32751 ft 458 kts 28°
2026-04-22 18:31 39.30713 -75.44854 31640 ft 462 kts 28°
2026-04-22 18:32 39.33353 -75.42547 30613 ft 467 kts 28°
2026-04-22 18:32 39.36052 -75.40172 29388 ft 472 kts 28°
2026-04-22 18:32 39.38756 -75.37775 28495 ft 469 kts 29°
2026-04-22 18:32 39.41426 -75.35396 27739 ft 463 kts 29°
2026-04-22 18:33 39.44063 -75.33043 26976 ft 458 kts 29°
2026-04-22 18:33 39.46678 -75.30708 26250 ft 461 kts 29°
2026-04-22 18:33 39.49384 -75.28306 26039 ft 479 kts 29°
2026-04-22 18:33 39.52159 -75.25824 26005 ft 490 kts 30°
2026-04-22 18:34 39.54904 -75.23274 25974 ft 489 kts 31°
2026-04-22 18:34 39.57598 -75.20719 25775 ft 470 kts 31°
2026-04-22 18:34 39.60173 -75.18267 25464 ft 450 kts 31°
2026-04-22 18:34 39.62672 -75.15901 24602 ft 441 kts 31°
2026-04-22 18:35 39.65143 -75.13576 23581 ft 437 kts 31°
2026-04-22 18:35 39.67590 -75.11278 22468 ft 431 kts 31°
2026-04-22 18:35 39.70019 -75.09074 21441 ft 422 kts 28°
2026-04-22 18:35 39.72447 -75.06998 20428 ft 415 kts 28°
2026-04-22 18:36 39.74851 -75.04973 19426 ft 409 kts 28°
2026-04-22 18:36 39.77189 -75.02994 18475 ft 404 kts 28°
2026-04-22 18:36 39.79525 -75.01001 17510 ft 397 kts 28°
2026-04-22 18:36 39.81779 -74.99060 16996 ft 379 kts 28°
2026-04-22 18:37 39.83927 -74.97203 16788 ft 369 kts 28°
2026-04-22 18:37 39.86086 -74.95335 16632 ft 375 kts 29°
2026-04-22 18:37 39.87510 -74.94066 16320 ft 374 kts 30°
2026-04-22 18:37 39.90337 -74.91489 15631 ft 368 kts 30°
2026-04-22 18:38 39.92360 -74.89440 15122 ft 369 kts 37°
2026-04-22 18:38 39.94116 -74.87078 14607 ft 367 kts 44°
2026-04-22 18:38 39.95818 -74.84615 14094 ft 365 kts 43°
2026-04-22 18:39 39.99217 -74.79750 13045 ft 360 kts 43°
2026-04-22 18:39 40.00902 -74.77344 12531 ft 358 kts 43°
2026-04-22 18:39 40.02575 -74.74950 12042 ft 356 kts 43°
2026-04-22 18:39 40.04248 -74.72553 11537 ft 358 kts 44°
2026-04-22 18:40 40.05915 -74.70161 11035 ft 354 kts 44°
2026-04-22 18:40 40.07542 -74.67820 10548 ft 351 kts 44°
2026-04-22 18:40 40.09171 -74.65476 10137 ft 345 kts 44°
2026-04-22 18:40 40.10784 -74.63154 10006 ft 347 kts 44°
2026-04-22 18:41 40.12408 -74.60817 9961 ft 347 kts 44°
2026-04-22 18:41 40.13995 -74.58525 9960 ft 331 kts 44°
2026-04-22 18:41 40.15497 -74.56351 9961 ft 313 kts 43°
2026-04-22 18:41 40.16919 -74.54295 9957 ft 298 kts 43°
2026-04-22 18:42 40.18326 -74.52271 9961 ft 303 kts 43°
2026-04-22 18:42 40.19740 -74.50237 9961 ft 301 kts 43°
2026-04-22 18:42 40.21184 -74.48316 9961 ft 300 kts 39°
2026-04-22 18:42 40.22691 -74.46426 9962 ft 300 kts 39°
2026-04-22 18:43 40.24195 -74.44533 9957 ft 300 kts 39°
2026-04-22 18:43 40.25697 -74.42637 9959 ft 300 kts 39°
2026-04-22 18:43 40.27199 -74.40739 9957 ft 300 kts 39°
2026-04-22 18:43 40.28699 -74.38842 9969 ft 299 kts 39°
2026-04-22 18:44 40.30189 -74.36957 9962 ft 297 kts 39°
2026-04-22 18:44 40.31676 -74.35074 9962 ft 298 kts 39°
2026-04-22 18:44 40.33168 -74.33187 9938 ft 297 kts 39°
2026-04-22 18:44 40.34630 -74.31334 9712 ft 295 kts 40°
2026-04-22 18:45 40.36106 -74.29463 9334 ft 295 kts 40°
2026-04-22 18:45 40.37575 -74.27599 8934 ft 293 kts 40°
2026-04-22 18:45 40.39035 -74.25745 8526 ft 291 kts 40°
2026-04-22 18:45 40.40487 -74.23900 8134 ft 290 kts 40°
2026-04-22 18:46 40.41930 -74.22065 7726 ft 288 kts 40°
2026-04-22 18:46 40.43365 -74.20240 7352 ft 286 kts 40°
2026-04-22 18:46 40.44790 -74.18427 6956 ft 285 kts 40°
2026-04-22 18:46 40.46211 -74.16617 6574 ft 283 kts 40°
2026-04-22 18:47 40.47601 -74.14845 6215 ft 281 kts 40°
2026-04-22 18:47 40.48996 -74.13068 5825 ft 279 kts 41°
2026-04-22 18:47 40.50383 -74.11298 5437 ft 277 kts 41°
2026-04-22 18:47 40.51778 -74.09572 5107 ft 272 kts 36°
2026-04-22 18:48 40.53321 -74.08176 4998 ft 272 kts 29°
2026-04-22 18:48 40.54949 -74.06902 4945 ft 269 kts 22°
2026-04-22 18:48 40.56711 -74.06173 4672 ft 265 kts
2026-04-22 18:48 40.58538 -74.06015 4272 ft 263 kts 360°
2026-04-22 18:49 40.60353 -74.05905 4052 ft 261 kts
2026-04-22 18:49 40.62190 -74.05784 4007 ft 265 kts
2026-04-22 18:49 40.64024 -74.05656 4007 ft 263 kts
2026-04-22 18:49 40.65833 -74.05528 4009 ft 264 kts
2026-04-22 18:50 40.67668 -74.05396 4007 ft 264 kts
2026-04-22 18:50 40.69492 -74.05095 4007 ft 265 kts 12°
2026-04-22 18:50 40.71211 -74.04166 4006 ft 269 kts 27°
2026-04-22 18:50 40.72843 -74.02964 4006 ft 268 kts 27°
2026-04-22 18:51 40.74478 -74.01779 4009 ft 269 kts 26°
2026-04-22 18:51 40.76123 -74.00598 4007 ft 268 kts 26°
2026-04-22 18:51 40.77758 -73.99419 4006 ft 268 kts 27°
2026-04-22 18:51 40.79380 -73.98247 3994 ft 270 kts 27°
2026-04-22 18:52 40.81018 -73.97070 3986 ft 268 kts 26°
2026-04-22 18:52 40.82660 -73.95890 3990 ft 269 kts 26°
2026-04-22 18:52 40.84311 -73.94737 3985 ft 268 kts 25°
2026-04-22 18:52 40.85980 -73.93596 3987 ft 271 kts 26°
2026-04-22 18:53 40.87651 -73.92462 3989 ft 270 kts 25°
2026-04-22 18:53 40.89330 -73.91311 3986 ft 273 kts 26°
2026-04-22 18:53 40.90958 -73.90063 3991 ft 269 kts 35°
2026-04-22 18:53 40.92450 -73.88586 3983 ft 274 kts 35°
2026-04-22 18:54 40.93976 -73.87090 3985 ft 271 kts 35°
2026-04-22 18:54 40.95495 -73.85607 3991 ft 273 kts 36°
2026-04-22 18:54 40.96780 -73.83787 3992 ft 272 kts 60°
2026-04-22 18:54 40.97301 -73.81438 3911 ft 264 kts 90°
2026-04-22 18:55 40.96938 -73.79146 3829 ft 250 kts 119°
2026-04-22 18:55 40.95958 -73.77340 3741 ft 235 kts 135°
2026-04-22 18:55 40.94785 -73.75988 3600 ft 214 kts 156°
2026-04-22 18:55 40.93413 -73.75516 3351 ft 200 kts 181°
2026-04-22 18:56 40.92089 -73.75878 3050 ft 190 kts 207°
2026-04-22 18:56 40.90980 -73.76822 2996 ft 196 kts 213°
2026-04-22 18:56 40.89841 -73.77786 2980 ft 192 kts 211°
2026-04-22 18:56 40.88733 -73.78693 2900 ft 183 kts 211°
2026-04-22 18:57 40.87656 -73.79579 2616 ft 179 kts 210°
2026-04-22 18:57 40.86610 -73.80460 2134 ft 179 kts 212°
2026-04-22 18:57 40.85859 -73.81757 1681 ft 184 kts 246°
2026-04-22 18:57 40.85494 -73.83337 1463 ft 176 kts 250°
2026-04-22 18:58 40.85162 -73.84953 1263 ft 183 kts 250°
2026-04-22 18:58 40.84766 -73.86515 1015 ft 178 kts 238°
2026-04-22 18:58 40.84068 -73.87803 1046 ft 170 kts 225°
2026-04-22 18:58 40.83349 -73.88922 979 ft 150 kts 225°
2026-04-22 18:59 40.82699 -73.89977 1088 ft 155 kts 227°
2026-04-22 18:59 40.81915 -73.91153 1218 ft 178 kts 215°
2026-04-22 18:59 40.80898 -73.91689 1181 ft 145 kts 179°
2026-04-22 18:59 40.79973 -73.91355 921 ft 137 kts 150°
2026-04-22 19:00 40.79372 -73.90429 654 ft 131 kts 120°
2026-04-22 19:00 40.78959 -73.89403 432 ft 128 kts 121°
2026-04-22 19:00 40.78506 -73.88422 199 ft 121 kts 123°
2026-04-22 19:00 40.78065 -73.87498 16 ft 117 kts 125°
2026-04-22 19:01 40.77712 -73.86772 13 ft 50 kts 122°
2026-04-22 19:01 40.77504 -73.86579 9 ft 28 kts 167°
2026-04-22 19:01 40.77390 -73.86488 12 ft 19 kts 123°
2026-04-22 19:01 40.77345 -73.86396 11 ft 12 kts 122°
2026-04-22 19:02 40.77297 -73.86295 12 ft 14 kts 122°
2026-04-22 19:02 40.77244 -73.86185 14 ft 15 kts 122°
2026-04-22 19:02 40.77180 -73.86053 13 ft 19 kts 121°
2026-04-22 19:02 40.77113 -73.85915 15 ft 11 kts 130°
2026-04-22 19:03 40.77049 -73.85894 11 ft 9 kts 174°
2026-04-22 19:03 40.76983 -73.85884 10 ft 11 kts 178°
2026-04-22 19:03 40.76937 -73.85850 11 ft 2 kts 122°
2026-04-22 19:03 40.76935 -73.85844 11 ft 0 kts 118°
2026-04-22 19:04 40.76935 -73.85845 11 ft 0 kts 118°